Location: ???? ?????
(30.0052°N, 31.2891°E)
Time: 06:21:59
(UTC+00:00)

Iridium 16 - Pass Details

Date: 31 January 2023
Orbit: 766 x 768 km, 86.4° (Epoch: 23 March)

Event Time Altitude Azimuth Distance (km) Brightness Sun altitude
Rises 02:58:21 0° 172° (S) 3,218 8.9 -23.5°
Reaches altitude 10° 03:00:42 10° 168° (SSE) 2,295 8.2 -23.0°
Maximum altitude 03:05:45 62° 89° (E) 862 6.0 -21.9°
Drops below altitude 10° 03:10:50 10° 9° (N) 2,309 8.0 -20.8°
Sets 03:13:12 0° 6° (N) 3,239 8.7 -20.3°
